{"data":{"norad_id":59219,"intl_designator":"2024-046U","name":"STARLINK-31518","alt_names":[],"object_type":"PAYLOAD","status":"ACTIVE","operator":null,"country":"US","launch_date":"2024-03-11","launch_site_code":"AFWTR","launch_vehicle":null,"mission":null,"orbit_class":"UNKNOWN","rcs_meters":null,"size_class":null,"mass_kg":null,"dimensions":null,"purposes":["comms"],"wikipedia_slug":null,"has_3d_model":false,"image_url":null,"decayed_at":null,"tle_current":{"epoch":"2026-05-25T00:57:17.686656Z","epoch_age_seconds":67780,"freshness":"FRESH","line1":"1 59219U 24046U   26145.03978804  .00000592  00000+0  28661-4 0  9991","line2":"2 59219  53.1597 159.6701 0001094  87.4653 272.6475 15.34389393124743","mean_motion":15.34389393,"eccentricity":0.0001094,"inclination_deg":53.1597,"raan_deg":159.6701,"arg_perigee_deg":87.4653,"mean_anomaly_deg":272.6475,"bstar":2.8661e-5,"rev_number":12474,"period_min":93.848406836582,"perigee_km":461.98637525677,"apogee_km":463.48315799931,"semimajor_km":6840.871766628,"source":"CELESTRAK","updated_at":"2026-05-25T13:38:18.867831Z"}}}